Weather History for KRNM - January, 2013

Change the Weather History Date:

Saturday, January 5, 2013

  Actual Average Record
Temperature  
Mean Temperature 44 °F 50 °F  
Max Temperature 65 °F 65 °F 83 °F (1999)
Min Temperature 23 °F 35 °F 23 °F (2013)
Degree Days  
Heating Degree Days 21 15  
Month to date heating degree days 99 75  
Since 1 July heating degree days 901 963  
Cooling Degree Days 0 0  
Month to date cooling degree days 0 0  
Year to date cooling degree days 0 0  
Moisture  
Dew Point 24 °F    
Average Humidity 48    
Maximum Humidity 82    
Minimum Humidity 14    
Precipitation  
Precipitation 0.00 in 0.12 in 1.64 in (1987)
Month to date precipitation T 0.66  
Year to date precipitation T 0.66  
Since 1 July precipitation 3.64 5.37  
Snow  
Snow 0.00 in - - ()
Month to date snowfall 0.0  
Year to date snowfall 0.0  
Since 1 July snowfall 0.0  
Snow Depth 0.00 in    
Sea Level Pressure  
Sea Level Pressure 30.23 in    
Wind  
Wind Speed 3 mph (WNW)    
Max Wind Speed 10 mph    
Max Gust Speed 23 mph    
Visibility 9 miles    
Events      
T = Trace of Precipitation, MM = Missing Value Source: NWS Daily Summary

Daily Weather History Graph

Daily Weather History Graph

Search for Another Location

Airport or City:

Trip Planner

Search our weather history database for the weather conditions in past years. The results will help you decide how hot, cold, wet, or windy it might be!

Date:

Astronomy

Jan. 05, 2013 Rise Set
Actual Time 6:51 AM PST 4:55 PM PST
Civil Twilight 6:24 AM PST 5:22 PM PST
Nautical Twilight 5:53 AM PST 5:53 PM PST
Astronomical Twilight 5:23 AM PST 6:23 PM PST
Moon 12:13 AM PST 11:38 AM PST
Length of Visible Light 10h 58m
Length of Day
10h 03m
Last Quarter, 43% of the Moon is Illuminated
Jan 5
Last Quarter
Jan 11
New
Jan 18
First Quarter
Jan 26
Full
Feb 3
Last Quarter

Hourly Weather History & Observations

Time (PST) Temp. Windchill Dew Point Humidity Pressure Visibility Wind Dir Wind Speed Gust Speed Precip Events Conditions
12:53 AM 28.0 °F - 21.9 °F 78% 30.25 in 5.0 mi Calm Calm - N/A   Haze
1:53 AM 28.9 °F - 21.0 °F 72% 30.24 in 6.0 mi Calm Calm - N/A   Haze
2:53 AM 27.0 °F - 19.9 °F 75% 30.24 in 6.0 mi Calm Calm - N/A   Haze
3:53 AM 26.1 °F - 19.0 °F 75% 30.25 in 10.0 mi Calm Calm - N/A   Clear
4:53 AM 25.0 °F - 19.0 °F 78% 30.25 in 10.0 mi Calm Calm - N/A   Clear
5:53 AM 26.1 °F - 19.9 °F 78% 30.27 in 10.0 mi Calm Calm - N/A   Clear
6:53 AM 26.1 °F - 19.0 °F 75% 30.29 in 10.0 mi Calm Calm - N/A   Clear
7:53 AM 30.9 °F - 25.0 °F 79% 30.29 in 9.0 mi Calm Calm - N/A   Clear
8:53 AM 46.9 °F - 30.0 °F 52% 30.28 in 10.0 mi Calm Calm - N/A   Clear
9:53 AM 57.9 °F - 14.0 °F 18% 30.27 in 10.0 mi Calm Calm - N/A   Clear
10:53 AM 62.1 °F - 14.0 °F 15% 30.26 in 10.0 mi WNW 4.6 mph - N/A   Clear
11:53 AM 63.0 °F - 21.0 °F 20% 30.22 in 10.0 mi NW 6.9 mph - N/A   Clear
12:53 PM 64.0 °F - 18.0 °F 17% 30.19 in 10.0 mi WNW 9.2 mph - N/A   Clear
1:03 PM 62.6 °F - 17.6 °F 18% 30.19 in 10.0 mi WNW 5.8 mph - N/A   Clear
1:53 PM 63.0 °F - 19.9 °F 19% 30.18 in 10.0 mi West 10.4 mph - N/A   Clear
2:53 PM 62.1 °F - 21.9 °F 21% 30.18 in 10.0 mi WNW 5.8 mph - N/A   Clear
3:53 PM 59.0 °F - 26.1 °F 28% 30.18 in 10.0 mi West 6.9 mph - N/A   Clear
4:53 PM 48.9 °F - 34.0 °F 56% 30.20 in 10.0 mi WNW 6.9 mph - N/A   Clear
5:53 PM 42.1 °F 39.2 °F 33.1 °F 70% 30.21 in 10.0 mi NW 4.6 mph - N/A   Clear
6:53 PM 39.0 °F - 32.0 °F 76% 30.21 in 10.0 mi Calm Calm - N/A   Clear
7:53 PM 39.0 °F - 30.9 °F 73% 30.21 in 10.0 mi Calm Calm - N/A   Clear
8:53 PM 36.0 °F - 30.0 °F 79% 30.21 in 10.0 mi Calm Calm - N/A   Clear
9:53 PM 35.1 °F - 30.0 °F 82% 30.21 in 10.0 mi Calm Calm - N/A   Clear
10:53 PM 33.1 °F 28.7 °F 28.9 °F 85% 30.22 in 6.0 mi East 4.6 mph - N/A   Clear
11:53 PM 35.1 °F 32.2 °F 30.0 °F 82% 30.20 in 5.0 mi East 3.5 mph - N/A   Haze